Location: Bois de la Silve
(44.4667°N, 6.7833°E)
Time: 08:05:23
(UTC+00:00)

Cosmos 2016 Rocket - Pass Details

Date: 14 July 2020
Orbit: 948 x 999 km, 83.0° (Epoch: 14 August)

Event Time Altitude Azimuth Distance (km) Brightness Sun altitude
Exits shadow 01:53:41 27° 217° (SW) 1,764 4.7 -17.1°
Maximum altitude 01:56:58 54° 283° (WNW) 1,165 4.3 -16.8°
Drops below altitude 10° 02:03:04 10° 360° (N) 2,728 7.2 -16.1°
Sets 02:05:40 0° 5° (N) 3,687 8.1 -15.9°
